Location: Lecco
(45.8566°N, 9.3977°E)
Time: 12:58:35
(UTC+02:00)

Explorer 11/Cluster Stage 4 - Pass Details

Date: 21 August 2020
Orbit: 467 x 1258 km, 28.8° (Epoch: 24 September)

Event Time Altitude Azimuth Distance (km) Brightness Sun altitude
Rises 20:47:34 0° 235° (SW) 3,385 10.3 -5.3°
Reaches altitude 10° 20:50:47 10° 216° (SW) 2,605 9.4 -5.9°
Maximum altitude 20:54:53 18° 176° (S) 2,264 8.7 -6.5°
Drops below altitude 10° 20:59:26 10° 137° (SE) 2,960 8.9 -7.2°
Enters shadow 21:00:34 - 131° (SE) 3,241 9.1 -7.4°
Sets 21:03:26 0° 120° (ESE) 4,042 - -7.9°
